Weather History for Cape Cod CGAS, MA

Change the Weather History Date:

Thursday, September 20, 2012

  Actual Average Record
Temperature  
Mean Temperature 58 °F -  
Max Temperature 65 °F 68 °F 78 °F (2003)
Min Temperature 50 °F 52 °F 35 °F (2014)
Degree Days  
Heating Degree Days 8    
Growing Degree Days 8 (Base 50)    
Moisture  
Dew Point 48 °F    
Average Humidity 71    
Maximum Humidity 94    
Minimum Humidity 48    
Precipitation  
Precipitation 0.00 in - - ()
Sea Level Pressure  
Sea Level Pressure 30.19 in    
Wind  
Wind Speed 10 mph (NE)    
Max Wind Speed 17 mph    
Max Gust Speed 23 mph    
Visibility 10 miles    
Events      
Averages and records for this station are not official NWS values.
T = Trace of Precipitation, MM = Missing Value Source: NWS Daily Summary

Daily Weather History Graph

Daily Weather History Graph

Search for Another Location

Airport:

Trip Planner

Search our weather history database for the weather conditions in past years. The results will help you decide how hot, cold, wet, or windy it might be!

Date:

Astronomy

Sep. 20, 2012 Rise Set
Actual Time 6:27 AM EDT 6:42 PM EDT
Civil Twilight 6:00 AM EDT 7:09 PM EDT
Nautical Twilight 5:27 AM EDT 7:42 PM EDT
Astronomical Twilight 4:54 AM EDT 8:15 PM EDT
Moon 11:47 AM EDT (9/20) 9:36 PM EDT (9/20)
Length of Visible Light 13h 09m
Length of Day
12h 14m
Waxing Crescent, 26% of the Moon is Illuminated
Sep 20
Waxing Crescent
Sep 22
First Quarter
Sep 29
Full
Oct 8
Last Quarter
Oct 15
New

Hourly Weather History & Observations

Time (EDT) Temp. Dew Point Humidity Pressure Visibility Wind Dir Wind Speed Gust Speed Precip Events Conditions
12:15 AM 57.2 °F 48.2 °F 72% 30.17 in 10.0 mi North 5.8 mph - N/A   Clear
12:35 AM 57.2 °F 48.2 °F 72% 30.17 in 10.0 mi North 6.9 mph - N/A   Clear
12:55 AM 57.2 °F 50.0 °F 77% 30.18 in 10.0 mi North 5.8 mph - N/A   Clear
1:15 AM 57.2 °F 53.6 °F 88% 30.18 in 10.0 mi NNE 5.8 mph - N/A   Clear
1:35 AM 57.2 °F 51.8 °F 82% 30.17 in 10.0 mi NNE 8.1 mph - N/A   Clear
1:55 AM 57.2 °F 50.0 °F 77% 30.17 in 10.0 mi NE 6.9 mph - N/A   Clear
2:15 AM 57.2 °F 51.8 °F 82% 30.18 in 10.0 mi NE 8.1 mph - N/A   Clear
2:35 AM 57.2 °F 50.0 °F 77% 30.18 in 10.0 mi NE 9.2 mph - N/A   Clear
2:55 AM 57.2 °F 50.0 °F 77% 30.18 in 10.0 mi NE 9.2 mph - N/A   Clear
3:15 AM 57.2 °F 48.2 °F 72% 30.18 in 10.0 mi NE 11.5 mph - N/A   Clear
3:35 AM 57.2 °F 48.2 °F 72% 30.18 in 10.0 mi NE 11.5 mph 19.6 mph N/A   Clear
3:55 AM 57.2 °F 48.2 °F 72% 30.19 in 10.0 mi NE 11.5 mph 16.1 mph N/A   Clear
4:15 AM 57.2 °F 50.0 °F 77% 30.19 in 10.0 mi NE 13.8 mph 19.6 mph N/A   Clear
4:35 AM 57.2 °F 48.2 °F 72% 30.19 in 10.0 mi ENE 11.5 mph 18.4 mph N/A   Clear
4:55 AM 57.2 °F 48.2 °F 72% 30.20 in 10.0 mi NE 13.8 mph 19.6 mph N/A   Clear
5:15 AM 57.2 °F 48.2 °F 72% 30.20 in 10.0 mi ENE 13.8 mph 19.6 mph N/A   Clear
5:35 AM 55.4 °F 46.4 °F 72% 30.21 in 10.0 mi NE 11.5 mph - N/A   Clear
5:55 AM 55.4 °F 48.2 °F 77% 30.21 in 10.0 mi NE 11.5 mph - N/A   Clear
6:15 AM 55.4 °F 48.2 °F 77% 30.21 in - NE 12.7 mph - N/A   Unknown
6:35 AM 55.4 °F 48.2 °F 77% 30.21 in 10.0 mi NE 12.7 mph 18.4 mph N/A   Clear
6:55 AM 55.4 °F 46.4 °F 72% 30.22 in 10.0 mi ENE 10.4 mph - N/A   Clear
7:15 AM 57.2 °F 48.2 °F 72% 30.22 in 10.0 mi NE 12.7 mph - N/A   Clear
7:35 AM 57.2 °F 48.2 °F 72% 30.22 in 10.0 mi ENE 13.8 mph - N/A   Clear
7:55 AM 59.0 °F 48.2 °F 67% 30.22 in 10.0 mi ENE 15.0 mph 18.4 mph N/A   Clear
8:15 AM 59.0 °F 48.2 °F 67% 30.23 in 10.0 mi ENE 15.0 mph - N/A   Clear
8:35 AM 60.8 °F 48.2 °F 63% 30.23 in 10.0 mi ENE 16.1 mph 20.7 mph N/A   Clear
8:55 AM 59.0 °F 48.2 °F 67% 30.23 in 10.0 mi NE 17.3 mph 23.0 mph N/A   Clear
9:15 AM 60.8 °F 48.2 °F 63% 30.23 in 10.0 mi ENE 13.8 mph 23.0 mph N/A   Clear
9:35 AM 62.6 °F 48.2 °F 59% 30.23 in 10.0 mi NE 17.3 mph 20.7 mph N/A   Clear
9:55 AM 62.6 °F 48.2 °F 59% 30.23 in 10.0 mi ENE 15.0 mph 23.0 mph N/A   Clear
10:15 AM 62.6 °F 48.2 °F 59% 30.23 in 10.0 mi ENE 15.0 mph 20.7 mph N/A   Clear
10:35 AM 62.6 °F 48.2 °F 59% 30.22 in 10.0 mi ENE 15.0 mph 19.6 mph N/A   Clear
10:55 AM 62.6 °F 48.2 °F 59% 30.22 in 10.0 mi East 13.8 mph - N/A   Clear
11:15 AM 64.4 °F 48.2 °F 56% 30.22 in 10.0 mi ENE 16.1 mph 20.7 mph N/A   Clear
11:35 AM 64.4 °F 48.2 °F 56% 30.21 in 10.0 mi NE 13.8 mph 18.4 mph N/A   Clear
11:55 AM 64.4 °F 48.2 °F 56% 30.21 in 10.0 mi NE 11.5 mph 16.1 mph N/A   Unknown
12:15 PM 64.4 °F 48.2 °F 56% 30.21 in 10.0 mi East 10.4 mph 20.7 mph N/A   Clear
12:35 PM 64.4 °F 46.4 °F 52% 30.20 in 10.0 mi NE 12.7 mph 18.4 mph N/A   Clear
12:55 PM 64.4 °F 46.4 °F 52% 30.19 in 10.0 mi NE 12.7 mph 18.4 mph N/A   Unknown
1:15 PM 64.4 °F 46.4 °F 52% 30.19 in 10.0 mi ENE 15.0 mph 19.6 mph N/A   Clear
1:35 PM 64.4 °F 48.2 °F 56% 30.19 in 10.0 mi NE 13.8 mph 18.4 mph N/A   Clear
1:55 PM 64.4 °F 46.4 °F 52% 30.19 in 10.0 mi NE 13.8 mph 18.4 mph N/A   Clear
2:15 PM 64.4 °F 46.4 °F 52% 30.19 in 10.0 mi NE 12.7 mph 18.4 mph N/A   Clear
2:35 PM 64.4 °F 46.4 °F 52% 30.18 in 10.0 mi NNE 10.4 mph - N/A   Clear
2:55 PM 62.6 °F 46.4 °F 55% 30.19 in 10.0 mi NE 12.7 mph - N/A   Clear
3:15 PM 62.6 °F 46.4 °F 55% 30.18 in 10.0 mi NE 13.8 mph - N/A   Clear
3:35 PM 62.6 °F 48.2 °F 59% 30.18 in 10.0 mi NE 13.8 mph - N/A   Clear
3:55 PM 62.6 °F 48.2 °F 59% 30.17 in 10.0 mi NE 11.5 mph - N/A   Clear
4:15 PM 62.6 °F 48.2 °F 59% 30.17 in 10.0 mi NE 11.5 mph - N/A   Clear
4:35 PM 62.6 °F 48.2 °F 59% 30.17 in 10.0 mi NE 13.8 mph 17.3 mph N/A   Unknown
4:55 PM 60.8 °F 48.2 °F 63% 30.17 in 10.0 mi NE 13.8 mph 19.6 mph N/A   Clear
5:15 PM 59.0 °F 48.2 °F 67% 30.17 in 10.0 mi NE 10.4 mph 17.3 mph N/A   Clear
5:35 PM 59.0 °F 48.2 °F 67% 30.17 in 10.0 mi NE 8.1 mph - N/A   Clear
5:55 PM 59.0 °F 48.2 °F 67% 30.17 in 10.0 mi NE 8.1 mph - N/A   Clear
6:15 PM 57.2 °F 48.2 °F 72% 30.17 in 10.0 mi NE 5.8 mph - N/A   Clear
6:35 PM 55.4 °F 48.2 °F 77% 30.17 in 10.0 mi NNE 5.8 mph - N/A   Clear
6:55 PM 55.4 °F 48.2 °F 77% 30.18 in 10.0 mi NE 5.8 mph - N/A   Clear
7:15 PM 55.4 °F 48.2 °F 77% 30.17 in 10.0 mi NE 6.9 mph - N/A   Clear
7:35 PM 55.4 °F 48.2 °F 77% 30.18 in 10.0 mi North 4.6 mph - N/A   Clear
7:55 PM 53.6 °F 48.2 °F 82% 30.18 in 10.0 mi North 4.6 mph - N/A   Clear
8:15 PM 53.6 °F 48.2 °F 82% 30.18 in 10.0 mi North 4.6 mph - N/A   Clear
8:35 PM 51.8 °F 48.2 °F 88% 30.18 in 10.0 mi NNE 3.5 mph - N/A   Clear
8:55 PM 50.0 °F 48.2 °F 94% 30.18 in 10.0 mi Calm Calm - N/A   Clear
9:15 PM 51.8 °F 48.2 °F 88% 30.18 in 10.0 mi NNE 4.6 mph - N/A   Clear
9:35 PM 50.0 °F 48.2 °F 94% 30.17 in 10.0 mi NE 4.6 mph - N/A   Clear
9:55 PM 51.8 °F 48.2 °F 88% 30.17 in 10.0 mi NE 4.6 mph - N/A   Clear
10:15 PM 51.8 °F 48.2 °F 88% 30.18 in 10.0 mi NE 3.5 mph - N/A   Clear
10:35 PM 50.0 °F 46.4 °F 87% 30.17 in 10.0 mi NE 3.5 mph - N/A   Clear
10:55 PM 50.0 °F 48.2 °F 94% 30.16 in 10.0 mi NE 4.6 mph - N/A   Clear
11:15 PM 50.0 °F 48.2 °F 94% 30.17 in 10.0 mi NE 3.5 mph - N/A   Clear
11:35 PM 50.0 °F 48.2 °F 94% 30.16 in 10.0 mi NE 4.6 mph - N/A   Clear
11:55 PM 50.0 °F 48.2 °F 94% 30.16 in 10.0 mi NE 4.6 mph - N/A   Clear